Regional Weather Roundup
Issued by NWS Goodland, KS

Home | Current Version | Previous Version | Graphics & Text | Print | Product List | Glossary On
Versions: 1 2 3 4 5 6 7 8 9 10 11 12 13 14 15 16 17 18 19 20 21 22 23 24 25 26 27 28 29 30 31 32 33 34 35 36 37 38 39 40 41 42 43 44 45 46 47 48 49 50
000
ASUS43 KGLD 270059
RWRGLD

GOODLAND FORECAST AREA HOURLY WEATHER ROUNDUP
NATIONAL WEATHER SERVICE GOODLAND KS
600 PM MST FRI DEC 26 2014

...OFFICIAL OBSERVATIONS...

CITY           SKY/WX    TMP DP  RH WIND       PRES   REMARKS
GOODLAND KS    LGT SNOW  19  17  92 N10       30.04R FOG     WCI   7
HILL CITY KS   CLOUDY    25  22  88 N8        30.05R
IMPERIAL NEB   LGT SNOW  20  16  84 N14       30.06R FOG     WCI   7
MCCOOK NEB     CLOUDY    23  20  88 NW9       30.06R
AKRON CO       LGT SNOW  13  11  92 N10       30.01R FOG     WCI   0
BURLINGTON CO  PTCLDY    16  12  84 N9        30.02R
LIMON CO       CLOUDY    14  10  84 N12       29.97R WCI   0
$$

...UNOFFICIAL OBSERVATIONS...

CITY           SKY/WX    TMP DP  RH WIND       PRES   REMARKS
COLBY KS       LGT SNOW  21  21 100 NW9       30.05R
NORTON KS      FLURRIES  23  18  80 N9        30.04R
SHARON SPRINGS   N/A     20  18  92 N9          N/A
TRIBUNE KS     MOCLDY    21  21 100 NW9       30.06R
KIT CARSON CO    N/A     15  11  84 MISG        N/A
$$


USA.gov is the U.S. government's official web portal to all federal, state and local government web resources and services.